RH
73 87 88 93 70 57 18 16 71 72 72 68 77 70 64 64 63 73 74 62 65 72 70 72 67 69 66 71 81 68 68 65 74 76 76 72 65 63 60 54 55 65 73 77 74 75 74 45 44 49 46 52 47 46
77 88 95 95 71 60 16 11 69 74 72 71 74 77 78 62 59 74 69 66 63 71 74 69 67 69 73 72 76 71 71 73 75 89 80 73 68 68 64 66 56 62 60 63 66 66 47 43 42 39 50 50 54 53
79 94 97 98 78 63 15 13 58 75 79 76 77 78 79 83 75 67 66 65 66 69 68 65 66 67 70 70 71 76 68 69 69 64 76 80 69 70 70 72 57 56 54 62 54 44 51 41 42 41 51 51 52 51
82 94 98 99 89 64 18 15 59 72 79 84 82 87 87 80 67 58 57 49 62 71 79 71 64 63 65 66 68 73 73 68 67 62 71 82 78 58 69 58 68 52 57 63 66 54 46 44 42 42 44 54 54 54
82 93 98 98 98 69 23 17 68 82 78 86 89 92 89 80 75 51 44 47 50 45 76 71 67 67 67 65 66 68 72 70 72 73 78 80 72 72 75 78 89 55 64 64 63 46 41 38 38 41 43 49 53 52
85 93 98 97 100 78 34 18 66 87 84 86 86 93 94 85 82 63 50 41 40 46 55 91 70 73 73 72 69 68 68 69 72 79 77 70 68 67 88 90 60 48 43 36 40 33 36 34 30 37 41 43 47 50
90 94 97 98 100 85 50 19 35 90 88 92 93 93 90 95 83 76 63 54 68 57 43 68 85 74 73 75 73 72 71 71 68 74 80 73 67 66 91 79 50 31 36 38 38 36 44 41 37 36 40 43 46 48
94 94 96 98 98 81 55 19 23 89 93 94 95 92 97 93 87 87 84 82 76 63 42 92 90 66 74 77 75 73 71 71 70 68 78 77 76 78 93 68 51 45 33 34 37 37 37 36 38 41 46 48 52 54
97 96 95 100 100 83 58 22 27 91 92 97 100 100 98 99 96 88 86 80 74 55 61 77 84 82 76 77 76 69 73 88 77 86 86 79 88 92 71 60 50 40 45 39 37 40 41 41 38 42 48 52 51 55
99 97 96 100 100 90 59 24 50 86 89 99 100 99 87 71 71 67 63 62 65 60 60 89 66 89 72 78 78 78 76 88 93 82 73 91 93 56 40 36 38 34 34 42 44 55 52 50 47 47 46 44 45 50
100 99 99 100 100 96 52 26 75 87 100 100 97 84 74 60 58 63 85 90 85 96 73 71 70 87 72 85 86 70 92 94 95 79 87 92 92 65 38 38 33 40 40 35 39 36 35 38 44 50 52 52 54 58
100 100 100 100 100 100 42 34 80 92 98 92 78 72 63 60 80 92 94 88 93 86 85 81 74 65 70 70 77 82 89 93 94 80 92 94 66 45 41 35 33 33 44 40 37 40 38 42 45 48 51 53 56 59
100 100 100 100 100 100 44 61 89 99 99 83 62 60 67 83 100 97 88 98 99 82 86 82 94 63 70 70 84 88 96 96 76 96 90 77 57 33 33 36 36 29 41 47 39 37 40 41 49 53 56 59 63 62
100 100 100 100 100 98 58 74 100 100 93 78 75 98 94 97 95 90 86 85 67 79 81 71 83 75 80 92 89 93 82 82 98 100 82 68 45 33 33 37 42 41 49 48 44 42 44 48 55 58 62 63 60 60
100 100 100 100 100 99 76 82 100 100 88 78 88 98 98 83 84 83 84 77 77 74 73 78 85 75 94 93 92 92 95 98 87 76 74 43 39 35 32 37 42 44 50 54 54 56 56 58 61 62 61 61 63 59
100 100 100 100 100 99 90 98 100 100 99 91 97 98 95 94 98 93 77 69 69 76 71 74 96 100 95 93 98 98 90 87 70 88 35 39 39 39 36 40 45 49 57 62 64 62 64 65 62 59 61 60 56 50
100 100 98 100 100 98 96 100 100 99 99 100 99 85 82 84 81 86 82 66 70 81 94 93 96 76 87 100 100 90 90 81 51 35 31 32 29 24 34 41 48 54 59 64 69 69 69 67 66 64 61 56 50 48
100 99 96 100 99 99 100 100 99 100 99 99 99 98 95 79 75 81 83 70 78 80 78 88 71 91 88 88 89 84 58 42 34 33 31 38 40 34 30 42 52 58 61 64 70 71 71 67 63 62 60 54 49 39
100 100 100 100 98 99 98 99 99 99 98 99 92 83 100 90 80 65 59 65 63 69 67 74 87 92 84 77 76 37 40 36 30 29 31 38 41 45 40 42 50 58 63 68 72 70 65 61 63 64 58 48 38 31
100 100 100 99 100 97 98 99 97 98 99 91 93 94 88 74 63 68 71 67 85 89 91 100 90 73 68 47 43 39 36 39 30 28 31 40 42 44 45 41 58 58 64 75 78 73 69 68 68 64 48 37 29 26
100 99 99 99 99 99 98 98 99 99 90 94 90 92 88 82 72 70 77 84 98 98 98 70 59 56 52 51 50 53 51 52 54 52 47 49 44 45 51 47 50 67 72 75 72 72 72 67 61 43 33 27 26 31
99 99 99 99 98 99 99 98 91 96 97 97 100 92 100 100 100 91 85 99 90 77 73 69 65 56 54 52 43 44 48 52 52 54 54 53 52 50 52 52 46 58 66 74 73 71 67 61 42 31 25 26 32 36
99 99 98 98 98 97 99 98 93 98 98 99 99 99 97 98 88 84 98 91 75 63 60 63 54 51 59 52 60 58 55 61 65 64 62 60 55 57 58 54 54 50 59 67 75 78 63 42 31 24 26 33 37 37
98 98 98 97 96 97 98 98 97 99 96 98 98 99 95 97 100 100 94 95 59 51 56 54 56 59 60 66 65 54 49 65 66 69 68 67 64 58 56 60 54 59 59 71 81 74 48 41 34 27 33 38 38 36
94 98 96 98 98 95 96 97 98 98 96 97 96 100 96 99 94 92 90 84 63 58 52 49 58 57 61 57 54 49 52 65 68 69 65 68 69 70 69 68 61 72 77 82 93 70 60 66 30 35 39 38 36 35
96 97 95 91 96 88 94 96 96 97 96 100 95 91 100 99 100 97 94 46 44 44 45 47 46 50 54 50 52 48 47 61 72 77 73 73 71 72 70 67 67 94 100 100 98 96 84 33 34 40 41 44 36 39
96 98 96 82 81 83 90 86 84 90 96 93 98 99 100 100 96 84 43 32 33 31 33 36 40 44 44 44 49 52 58 71 79 78 78 90 86 76 72 59 68 94 100 99 97 96 81 34 40 50 55 37 40 39
85 94 93 94 90 76 93 94 94 92 89 84 91 100 92 87 81 45 34 36 34 35 38 39 41 44 48 47 48 49 51 60 77 86 86 95 95 86 81 78 86 99 99 99 99 86 42 43 56 59 37 40 41 44
99 90 82 97 96 92 87 87 85 68 60 83 85 90 86 55 34 34 34 35 37 37 39 39 40 42 43 44 45 46 55 64 82 90 90 92 93 95 94 95 100 98 98 97 72 46 55 79 50 39 39 40 45 49
98 79 95 94 94 90 80 60 59 47 53 52 47 43 42 39 38 38 39 39 39 39 41 44 44 45 44 44 45 50 59 67 75 86 89 92 96 98 98 97 98 98 96 95 94 96 89 46 40 40 41 45 50 53
90 85 92 94 92 77 71 68 61 58 58 59 55 58 53 51 48 48 46 45 45 46 47 46 46 45 46 47 50 58 61 67 72 92 100 100 99 97 98 97 97 97 97 96 96 86 54 40 41 43 47 51 53 57
90 87 92 100 98 93 86 84 74 73 76 78 68 70 68 67 66 54 50 49 48 48 46 46 46 43 46 53 59 65 68 75 87 93 99 99 98 97 98 97 97 98 97 94 75 56 41 41 44 49 52 55 59 64
98 96 94 95 100 100 96 86 98 99 100 100 92 78 74 71 78 53 49 48 48 47 47 47 49 53 57 60 64 72 80 89 98 97 100 100 98 96 96 97 98 96 93 88 53 42 42 46 49 52 57 61 64 66
Wind_Speed
16 17 13 11 12 12 11 8 7 5 7 14 13 12 8 4 2 7 11 10 3 5 6 4 2 3 2 3 1 0 2 2 3 2 1 2 2 3 1 4 3 4 3 3 2 1 6 9 6 7 4 7 11 11
17 17 17 11 10 10 10 9 8 6 6 17 16 12 8 6 4 7 9 7 3 4 4 4 4 4 2 3 3 1 2 1 1 2 0 0 2 1 3 3 1 2 6 3 7 5 5 15 4 8 10 14 14 16
20 18 18 14 11 10 10 9 10 10 10 15 18 13 9 4 4 6 5 5 6 3 2 2 5 5 4 4 5 3 1 3 1 3 2 2 3 3 2 5 3 4 6 3 1 3 8 16 14 13 11 14 15 15
23 21 20 16 12 10 9 9 9 9 11 13 18 15 9 5 3 4 3 1 1 2 2 4 7 9 9 8 6 6 6 4 6 4 2 1 2 4 3 4 4 7 7 5 5 7 3 13 20 20 16 16 16 15
26 23 21 19 15 11 10 9 8 9 11 12 18 15 10 7 4 4 1 2 3 3 2 4 7 10 11 10 8 7 7 7 3 3 0 3 3 2 3 2 5 13 8 6 6 13 13 5 23 23 23 22 20 19
29 26 23 22 18 13 11 11 11 13 13 17 17 15 13 10 6 2 2 1 1 2 3 1 3 5 7 9 8 8 8 5 3 3 4 4 3 2 3 4 10 16 23 28 10 16 19 9 7 22 25 23 21 19
32 30 25 23 21 16 13 14 15 16 14 16 18 15 13 10 7 5 2 2 5 5 3 3 4 3 5 7 7 6 7 5 5 4 5 4 4 5 3 9 7 13 17 23 26 18 11 17 10 18 23 21 19 18
35 33 28 25 23 19 15 16 17 19 18 15 16 15 12 10 11 12 13 11 8 5 4 1 3 2 5 1 3 3 4 5 8 5 3 5 3 5 5 15 25 28 25 22 25 30 23 17 17 18 21 22 23 23
37 36 32 28 26 22 18 18 18 19 19 18 15 12 9 8 7 11 12 11 11 8 3 3 4 4 9 5 4 2 2 2 3 3 4 5 3 6 13 16 22 22 19 20 21 27 27 22 23 23 25 24 24 23
38 38 36 32 29 26 21 20 22 21 19 17 14 6 6 6 8 5 3 4 6 8 7 5 6 3 8 6 3 4 3 2 2 3 2 3 4 37 43 45 40 34 18 22 24 26 27 26 27 28 29 26 23 21
41 40 39 36 32 29 24 23 26 25 22 21 11 8 7 4 4 3 3 3 4 3 7 6 13 5 10 3 3 7 3 2 1 3 0 3 4 7 20 23 25 37 42 29 31 31 31 34 31 29 28 25 22 20
43 41 41 38 35 32 28 29 33 31 23 18 10 9 8 6 4 3 3 2 4 5 6 7 5 4 6 5 3 4 3 3 4 1 2 3 5 15 18 23 23 20 26 37 28 28 24 24 26 26 26 24 22 19
44 44 42 39 38 35 31 33 32 29 25 19 7 6 6 5 1 7 7 4 2 8 11 8 1 6 5 5 3 2 3 4 2 1 4 6 14 26 30 27 22 20 17 28 31 25 20 18 21 23 23 21 19 19
45 46 43 41 42 38 35 35 33 31 24 7 9 5 5 5 6 5 4 4 6 6 17 16 7 4 3 3 3 3 3 2 2 1 7 3 17 30 29 23 18 14 12 20 25 25 21 18 19 19 20 20 20 18
44 47 43 42 45 40 38 38 40 36 10 8 8 6 8 10 6 6 8 8 7 15 25 10 5 5 1 2 3 3 2 4 6 5 3 10 26 30 29 23 16 12 12 16 20 21 19 18 19 20 19 18 17 16
42 45 48 47 48 42 41 42 41 35 7 7 8 4 5 3 5 9 12 12 15 25 12 5 3 3 4 4 3 7 6 7 4 3 12 23 22 17 20 19 16 12 11 13 17 18 19 20 20 19 19 18 16 14
50 43 54 52 49 45 47 42 29 12 10 8 7 23 17 6 11 16 20 16 22 23 3 4 6 9 2 2 3 5 6 4 6 12 15 20 26 29 24 17 13 12 12 13 16 19 19 19 19 18 17 16 14 13
53 46 46 56 50 47 46 27 14 12 10 11 7 17 29 9 10 12 16 20 23 16 9 5 5 3 5 6 4 5 17 17 11 12 15 18 21 24 24 17 12 12 14 15 17 20 21 20 19 17 16 15 13 12
49 44 52 59 60 45 17 16 13 6 11 7 11 17 21 19 21 13 16 19 25 17 8 8 3 4 4 9 8 14 14 14 18 20 21 23 24 25 26 20 13 13 16 18 21 23 22 20 17 17 15 15 14 12
49 48 60 66 61 18 9 7 20 7 7 10 13 19 13 14 23 25 22 22 29 9 4 4 6 14 15 23 23 24 22 19 20 21 29 30 27 28 26 24 18 14 17 19 22 23 22 21 19 17 15 14 13 12
48 66 68 65 38 10 11 11 10 9 10 9 14 14 8 13 15 17 21 27 14 8 3 25 35 37 40 41 40 41 44 44 38 36 39 39 39 32 26 22 18 19 21 24 26 25 23 20 17 16 15 14 14 11
46 63 44 36 11 8 5 11 11 16 9 5 13 12 5 5 7 13 13 13 10 24 28 37 38 42 45 47 49 51 51 48 47 45 43 42 42 36 29 27 20 24 25 27 27 26 22 21 18 16 14 15 13 12
61 41 27 8 5 5 7 16 6 10 4 7 12 6 3 5 7 15 6 11 17 36 43 43 47 46 45 48 44 46 47 45 44 44 42 40 42 38 31 31 25 25 29 29 27 26 24 18 16 15 16 14 13 13
47 11 7 8 7 5 11 8 8 8 7 5 5 4 4 7 10 5 4 8 35 35 31 37 38 41 41 42 45 49 48 43 43 43 44 42 43 44 40 35 33 30 31 30 29 28 24 17 18 18 16 13 13 14
12 7 11 5 8 6 5 4 4 4 4 4 5 1 2 9 5 5 5 8 30 35 39 38 36 39 41 44 44 44 41 35 34 37 38 40 40 40 38 34 33 28 26 29 30 27 23 23 22 18 14 13 14 14
5 8 13 9 5 5 6 6 8 6 5 4 5 4 7 4 4 7 4 10 21 26 29 31 32 35 36 38 37 35 35 29 27 31 33 32 32 34 36 35 36 31 32 33 31 27 24 24 21 17 12 16 15 12
6 5 9 8 11 13 6 4 7 4 5 6 5 6 4 5 7 5 13 18 21 24 24 22 21 23 25 25 25 25 26 27 27 30 27 24 27 30 32 33 36 30 30 30 28 27 23 24 20 13 17 16 14 11
4 9 9 13 7 7 6 4 5 7 5 9 12 6 11 10 7 8 8 6 7 11 13 13 15 16 17 17 19 22 24 24 25 25 25 23 24 26 29 32 33 28 25 25 21 19 22 20 15 17 16 14 12 10
5 14 19 4 4 4 5 6 7 12 15 18 7 5 6 11 20 20 19 19 19 20 21 24 24 24 24 24 24 25 22 21 21 23 27 29 27 27 28 29 26 24 23 19 18 19 16 15 15 14 13 12 10 8
7 19 5 4 6 6 7 15 9 19 20 18 20 18 22 30 30 29 31 32 34 37 34 31 30 30 28 28 28 26 22 20 20 21 28 31 32 27 28 27 27 27 24 24 23 21 19 19 18 15 13 11 9 7
18 9 5 3 4 8 9 19 14 14 21 20 26 26 31 26 29 32 34 36 37 37 36 36 33 31 29 28 26 23 22 20 22 24 25 26 24 19 24 28 28 25 25 24 21 19 17 16 15 14 12 11 9 6
9 7 5 4 1 6 13 14 9 8 8 8 11 18 18 12 12 30 32 30 33 35 37 34 31 29 24 21 20 19 21 19 16 18 22 21 18 17 26 29 26 25 24 21 19 18 17 16 14 14 12 10 8 5
5 5 5 6 2 1 6 6 4 0 2 3 7 9 12 9 9 21 28 29 29 29 27 24 22 23 22 20 17 16 15 14 13 11 14 14 14 21 29 27 28 25 21 20 21 20 19 17 15 13 11 9 6 4
Wind_Direction
262 264 273 292 305 310 312 302 304 305 168 154 150 152 176 194 35 13 13 3 285 300 291 226 253 289 300 354 153 261 57 301 21 40 114 262 173 244 320 248 202 186 160 209 150 152 271 161 123 166 201 147 167 169
249 257 265 276 287 294 299 285 278 276 222 188 169 166 170 196 270 339 357 6 328 289 306 244 273 262 312 348 338 354 316 289 178 86 259 159 294 296 193 269 309 242 187 194 180 214 217 189 217 181 172 167 162 162
241 244 257 265 270 277 284 270 266 266 230 210 186 178 191 206 255 285 312 332 341 54 73 239 273 272 277 295 314 317 333 342 331 345 193 210 250 132 231 244 228 258 193 213 34 238 208 198 199 189 187 190 184 183
237 235 249 256 256 261 268 264 260 260 216 207 193 182 188 203 273 297 263 311 208 269 200 207 238 252 256 273 286 265 284 312 309 313 290 212 216 191 238 246 208 215 154 197 255 264 217 225 214 208 194 192 197 195
236 231 240 248 250 248 254 246 243 210 202 197 193 191 207 220 267 276 251 176 199 225 252 264 267 231 228 242 260 266 269 286 313 313 294 244 257 303 267 300 240 200 196 184 221 214 192 213 219 209 204 199 201 199
233 230 232 240 246 236 236 229 216 207 200 198 197 200 206 218 237 264 257 8 293 273 281 303 262 247 238 231 226 233 245 248 239 265 254 262 259 259 275 255 255 242 230 230 227 237 225 223 207 205 207 204 205 206
231 228 229 231 239 234 226 224 212 205 205 200 204 206 213 229 217 219 231 217 317 330 250 300 289 267 244 224 219 214 210 207 225 229 233 225 221 216 241 249 257 271 251 241 234 226 212 211 211 206 209 210 210 212
229 227 226 227 228 231 224 217 211 201 200 205 207 209 215 231 245 249 249 264 271 261 248 141 277 306 183 275 273 232 220 205 213 228 225 201 192 212 258 251 259 254 253 247 232 228 235 236 221 206 206 207 208 211
228 225 225 224 224 223 220 212 206 193 198 204 208 201 216 232 243 244 254 247 238 232 256 189 171 231 174 160 166 182 281 298 250 245 242 165 211 226 238 254 263 265 241 245 234 224 228 227 224 210 208 210 213 214
228 224 222 221 220 218 215 206 193 185 196 194 195 186 207 203 224 258 239 221 206 213 229 229 194 185 165 170 179 148 163 229 287 266 256 223 259 250 253 256 264 264 267 238 213 212 216 216 211 211 215 220 222 222
226 221 221 219 216 214 208 198 185 182 187 189 182 192 191 191 189 202 229 207 190 267 220 229 194 152 186 130 197 202 186 169 111 264 227 296 271 251 276 272 275 262 252 247 241 247 245 235 222 215 216 219 219 217
225 219 220 217 213 209 202 193 185 185 186 188 174 160 166 190 172 126 220 246 187 230 197 163 181 173 159 172 143 189 154 41 250 143 89 264 262 338 332 323 310 291 255 233 238 240 241 240 234 228 224 219 215 214
225 218 219 215 210 206 196 191 187 184 181 161 181 165 168 169 91 185 199 238 216 184 174 154 133 162 149 177 105 104 112 217 121 52 242 234 313 334 335 329 312 305 266 234 228 231 230 232 224 220 219 218 214 210
226 218 218 212 207 199 190 186 184 184 174 182 171 198 191 195 229 191 191 189 182 167 157 147 129 146 138 119 162 115 231 94 30 287 238 285 328 333 333 328 316 310 269 239 230 226 221 217 211 209 211 211 209 211
227 219 216 210 205 194 181 182 186 186 180 186 192 217 199 217 218 200 199 161 159 160 152 133 108 147 153 126 181 80 353 248 212 228 229 282 324 327 328 327 313 292 263 241 232 224 215 208 203 198 197 201 207 213
228 219 214 206 200 185 172 183 183 191 209 223 227 205 171 142 214 206 199 185 172 162 147 135 125 101 229 166 130 206 154 228 244 218 290 315 318 326 322 321 310 288 262 241 231 223 214 204 199 198 197 200 208 219
217 202 206 202 191 170 171 175 169 178 206 218 211 204 195 203 203 206 204 196 177 168 184 139 153 205 106 90 229 189 211 222 205 312 344 359 352 342 329 317 298 270 248 231 221 215 211 202 198 201 206 210 217 229
202 204 199 194 171 164 176 189 177 192 214 218 176 198 202 190 179 181 192 187 172 190 171 203 158 149 198 184 226 229 234 251 267 292 308 326 339 340 327 312 294 266 246 226 212 208 205 207 208 211 215 223 234 244
204 199 191 180 162 158 162 193 190 210 210 183 201 195 193 214 219 211 199 195 197 189 178 178 186 194 216 220 217 240 243 241 274 294 309 322 329 336 331 310 286 256 246 231 212 208 209 215 221 224 228 236 240 239
204 191 182 166 163 147 147 175 195 215 188 194 192 202 196 209 219 220 215 200 198 180 187 202 212 222 221 236 250 262 265 281 278 283 295 303 308 310 314 315 282 253 238 227 217 210 209 213 219 226 235 241 240 240
181 170 166 164 165 138 158 159 170 196 181 184 193 192 209 208 204 206 206 205 184 205 226 230 242 247 252 256 259 262 266 272 272 274 282 289 297 297 297 299 277 248 234 222 217 214 213 216 223 233 237 237 241 244
161 161 155 167 167 141 142 175 155 150 153 160 161 179 173 186 207 208 195 185 221 226 231 238 243 250 255 258 263 265 267 270 272 273 273 275 276 277 280 282 268 245 232 230 228 225 221 218 221 229 233 240 244 257
155 163 160 136 136 128 131 162 127 157 153 163 154 173 205 201 210 170 200 213 232 238 242 243 252 258 259 267 267 270 272 272 271 271 271 268 273 274 274 275 260 251 237 231 230 232 231 226 226 226 231 237 249 266
147 128 144 142 150 152 151 174 154 142 129 165 173 195 199 196 164 206 240 218 240 248 246 250 255 260 264 264 266 271 275 271 272 270 269 266 265 268 273 267 260 246 239 234 229 228 224 231 236 228 228 237 256 268
111 160 156 154 163 130 130 137 144 154 155 167 156 204 180 175 187 229 227 246 244 246 250 255 255 256 256 262 269 277 283 276 271 271 276 269 267 265 264 259 245 232 234 233 229 226 227 232 226 222 227 248 261 269
133 169 176 170 144 133 158 148 179 150 130 141 197 169 158 169 199 239 225 247 249 253 254 252 253 255 258 264 269 278 288 292 282 275 278 272 269 261 260 254 230 229 237 229 220 220 229 225 221 220 237 256 256 258
147 151 178 160 141 132 128 102 129 116 153 173 173 165 157 192 230 243 253 263 261 265 271 270 266 264 269 280 285 292 293 289 282 279 278 278 275 271 257 248 232 252 243 223 214 215 220 222 215 227 247 246 246 246
143 149 155 164 135 152 128 131 145 174 176 177 144 183 179 194 224 207 198 201 227 252 254 263 266 270 276 284 289 290 291 286 279 274 264 270 263 257 251 242 237 249 232 213 216 206 208 207 220 237 238 237 236 236
159 144 136 111 104 148 177 167 192 200 175 170 172 186 218 218 243 252 257 259 263 265 266 271 276 282 285 288 290 290 285 280 270 261 255 256 253 245 236 230 226 213 194 186 184 190 196 216 224 227 224 222 225 227
170 162 94 121 158 196 205 190 191 195 198 204 215 237 247 250 254 258 261 265 267 272 276 275 277 279 283 287 288 283 280 271 261 255 254 256 260 253 236 220 203 188 185 180 185 192 201 211 216 211 206 207 209 210
154 151 108 132 191 191 184 194 197 203 210 218 229 238 246 257 260 260 261 263 266 268 270 271 273 278 278 278 277 279 277 269 258 250 251 255 259 259 226 203 189 182 180 177 184 193 202 202 195 192 191 192 193 197
149 152 129 124 234 173 179 186 195 206 208 225 234 242 249 255 260 268 262 259 258 259 264 267 269 276 282 280 275 269 263 257 253 250 247 246 243 232 202 188 184 179 171 170 181 192 192 186 182 180 180 182 186 199
88 99 106 109 86 106 165 152 183 254 238 255 244 237 240 236 245 263 264 260 259 261 261 261 259 259 261 264 264 256 253 249 243 248 234 225 225 199 182 184 175 167 166 179 188 184 177 174 174 174 175 179 185 193